This is the latest recevied weather packets stored in our database for station/object KE8AFF-13. If no packets are shown the sender has not sent any weather packets the latest 10 day(s).
| Time | Temp. | Humidity | Pressure | Rain* | Wind** | Luminosity | Snow |
|---|---|---|---|---|---|---|---|
| 1777908668 | 17.22° C | 64% | 1007.6 hPa | 0 mm | - | 751 W/m² | - |
| 1777908364 | 17.22° C | 64% | 1008 hPa | 0 mm | - | 721 W/m² | - |
| 1777908060 | 17.22° C | 65% | 1007.9 hPa | 0 mm | - | 740 W/m² | - |
| 1777907756 | 17.22° C | 64% | 1007.9 hPa | 0 mm | - | 732 W/m² | - |
| 1777907451 | 16.67° C | 65% | 1007.7 hPa | 0 mm | - | 749 W/m² | - |
| 1777907148 | 16.67° C | 64% | 1007.8 hPa | 0 mm | - | 758 W/m² | - |
| 1777906846 | 16.11° C | 65% | 1008 hPa | 0 mm | - | 759 W/m² | - |
| 1777906543 | 16.67° C | 65% | 1008 hPa | 0 mm | - | 757 W/m² | - |
| 1777906238 | 16.11° C | 65% | 1008.2 hPa | 0 mm | - | 735 W/m² | - |
| 1777905935 | 16.11° C | 65% | 1008.2 hPa | 0 mm | - | 725 W/m² | - |
| 1777905632 | 16.11° C | 65% | 1008 hPa | 0 mm | - | 704 W/m² | - |
| 1777905329 | 15.56° C | 65% | 1008.2 hPa | 0 mm | - | 701 W/m² | - |
| 1777905027 | 15.56° C | 66% | 1008 hPa | 0 mm | - | 687 W/m² | - |
| 1777904724 | 15° C | 66% | 1008.1 hPa | 0 mm | - | 650 W/m² | - |
| 1777904421 | 15° C | 66% | 1008.3 hPa | 0 mm | - | 640 W/m² | - |
| 1777904117 | 15° C | 67% | 1008.3 hPa | 0 mm | - | 629 W/m² | - |
| 1777903814 | 15° C | 66% | 1008.3 hPa | 0 mm | - | 625 W/m² | - |
| 1777903511 | 14.44° C | 67% | 1008.4 hPa | 0 mm | - | 593 W/m² | - |
| 1777903208 | 14.44° C | 67% | 1008.7 hPa | 0 mm | - | 581 W/m² | - |
| 1777902904 | 14.44° C | 67% | 1008.6 hPa | 0 mm | - | 593 W/m² | - |
| 1777902601 | 13.89° C | 67% | 1008.6 hPa | 0 mm | - | 582 W/m² | - |
| 1777902298 | 13.89° C | 67% | 1008.6 hPa | 0 mm | - | 551 W/m² | - |
| 1777901995 | 13.89° C | 67% | 1008.7 hPa | 0 mm | - | 523 W/m² | - |
| 1777901694 | 13.33° C | 68% | 1008.7 hPa | 0 mm | - | 468 W/m² | - |
| 1777901390 | 13.33° C | 68% | 1008.9 hPa | 0 mm | - | 440 W/m² | - |
* Rain latest hour (hover to see other rain measurements)
** Current wind speed in m/s (hover to see current wind gust speed)